Weather History for Bellefontaine, OH

Change the Weather History Date:

Friday, November 15, 2013

  Actual Average (KDAY) Record (KDAY)
Temperature  
Mean Temperature 40 °F 43 °F  
Max Temperature 46 °F 52 °F 74 °F (1909)
Min Temperature 33 °F 35 °F 13 °F (1916)
Degree Days  
Heating Degree Days 26 22  
Month to date heating degree days 283  
Since 1 July heating degree days 730  
Cooling Degree Days 0 0  
Month to date cooling degree days 0  
Year to date cooling degree days 891  
Moisture  
Dew Point 26 °F    
Average Humidity 53    
Maximum Humidity 81    
Minimum Humidity 39    
Precipitation  
Precipitation 0.00 in 0.12 in 1.45 in (2005)
Month to date precipitation 1.61  
Year to date precipitation 36.15  
Snow  
Snow 0.00 in 0.00 in 1.30 in (2008)
Month to date snowfall 0.2  
Since 1 July snowfall 0.6  
Since 1 September snowfall 0.6  
Snow Depth -    
Sea Level Pressure  
Sea Level Pressure 30.08 in    
Wind  
Wind Speed 11 mph (South)    
Max Wind Speed 17 mph    
Max Gust Speed 25 mph    
Visibility 10 miles    
Events      
T = Trace of Precipitation, MM = Missing Value Source: NWS Daily Summary

Daily Weather History Graph

Daily Weather History Graph

Search for Another Location

Airport:

Trip Planner

Search our weather history database for the weather conditions in past years. The results will help you decide how hot, cold, wet, or windy it might be!

Date:

Astronomy

Nov. 15, 2013 Rise Set
Actual Time 7:21 AM EST 5:17 PM EST
Civil Twilight 6:52 AM EST 5:47 PM EST
Nautical Twilight 6:19 AM EST 6:19 PM EST
Astronomical Twilight 5:47 AM EST 6:52 PM EST
Moon 4:14 PM EST (11/15) 5:16 AM EST (11/15)
Length of Visible Light 10h 54m
Length of Day
9h 56m
Waxing Gibbous, 96% of the Moon is Illuminated
Nov 15
Waxing Gibbous
Nov 17
Full
Nov 25
Last Quarter
Dec 2
New
Dec 9
First Quarter

Hourly Weather History & Observations

Time (EST) Temp. Windchill Dew Point Humidity Pressure Visibility Wind Dir Wind Speed Gust Speed Precip Events Conditions
12:05 AM 42.8 °F 34.8 °F 19.4 °F 39% 30.09 in 10.0 mi SSW 17.3 mph 25.3 mph 0.00 in   Clear
12:25 AM 42.8 °F 35.1 °F 19.4 °F 39% 30.08 in 10.0 mi SSW 16.1 mph 23.0 mph 0.00 in   Clear
12:45 AM 42.8 °F 34.8 °F 19.4 °F 39% 30.08 in 10.0 mi SSW 17.3 mph 24.2 mph 0.00 in   Clear
1:05 AM 42.8 °F 35.1 °F 19.4 °F 39% 30.08 in 10.0 mi SSW 16.1 mph 20.7 mph 0.00 in   Clear
1:25 AM 42.8 °F 35.8 °F 19.4 °F 39% 30.07 in 10.0 mi SSW 13.8 mph 20.7 mph 0.00 in   Clear
1:45 AM 42.8 °F 36.6 °F 21.2 °F 42% 30.08 in 10.0 mi SSW 11.5 mph - 0.00 in   Clear
2:05 AM 41.0 °F 33.9 °F 21.2 °F 45% 30.08 in 10.0 mi SSW 12.7 mph - 0.00 in   Clear
2:25 AM 41.0 °F 34.3 °F 21.2 °F 45% 30.09 in 10.0 mi SSW 11.5 mph 17.3 mph 0.00 in   Clear
2:45 AM 39.2 °F 32.5 °F 21.2 °F 49% 30.09 in 10.0 mi SSW 10.4 mph - 0.00 in   Clear
3:05 AM 39.2 °F 33.0 °F 21.2 °F 49% 30.09 in 10.0 mi South 9.2 mph - 0.00 in   Clear
3:25 AM 39.2 °F 33.0 °F 21.2 °F 49% 30.09 in 10.0 mi South 9.2 mph - 0.00 in   Clear
3:45 AM 39.2 °F 32.0 °F 21.2 °F 49% 30.09 in 10.0 mi South 11.5 mph - 0.00 in   Clear
4:05 AM 39.2 °F 32.0 °F 21.2 °F 49% 30.09 in 10.0 mi South 11.5 mph 16.1 mph 0.00 in   Clear
4:25 AM 39.2 °F 32.0 °F 21.2 °F 49% 30.09 in 10.0 mi South 11.5 mph - 0.00 in   Clear
4:45 AM 39.2 °F 32.5 °F 21.2 °F 49% 30.09 in 10.0 mi South 10.4 mph - 0.00 in   Clear
5:05 AM 39.2 °F 33.6 °F 21.2 °F 49% 30.10 in 10.0 mi South 8.1 mph - 0.00 in   Clear
5:25 AM 37.4 °F 32.8 °F 21.2 °F 52% 30.10 in 10.0 mi SSE 5.8 mph - 0.00 in   Clear
5:45 AM 37.4 °F 32.1 °F 23.0 °F 56% 30.09 in 10.0 mi SE 6.9 mph - 0.00 in   Clear
6:05 AM 37.4 °F 32.8 °F 23.0 °F 56% 30.10 in 10.0 mi SE 5.8 mph - 0.00 in   Clear
6:25 AM 35.6 °F 29.9 °F 23.0 °F 60% 30.10 in 10.0 mi SE 6.9 mph - 0.00 in   Clear
6:45 AM 35.6 °F 29.9 °F 23.0 °F 60% 30.10 in 10.0 mi SE 6.9 mph - 0.00 in   Clear
7:05 AM 35.6 °F 29.2 °F 23.0 °F 60% 30.09 in 10.0 mi SE 8.1 mph - 0.00 in   Clear
7:25 AM 33.8 °F 27.0 °F 23.0 °F 65% 30.10 in 10.0 mi SE 8.1 mph - 0.00 in   Clear
7:45 AM 35.6 °F 29.2 °F 23.0 °F 60% 30.10 in 10.0 mi SSE 8.1 mph - 0.00 in   Clear
8:05 AM 35.6 °F 29.9 °F 23.0 °F 60% 30.11 in 10.0 mi SSE 6.9 mph - 0.00 in   Clear
8:25 AM 37.4 °F 31.4 °F 23.0 °F 56% 30.11 in 10.0 mi South 8.1 mph - 0.00 in   Clear
8:45 AM 37.4 °F 31.4 °F 23.0 °F 56% 30.11 in 10.0 mi South 8.1 mph - 0.00 in   Clear
9:05 AM 39.2 °F 33.0 °F 23.0 °F 52% 30.11 in 10.0 mi South 9.2 mph - 0.00 in   Clear
9:25 AM 41.0 °F 34.7 °F 23.0 °F 49% 30.11 in 10.0 mi South 10.4 mph - 0.00 in   Clear
9:45 AM 42.8 °F 37.0 °F 23.0 °F 46% 30.11 in 10.0 mi South 10.4 mph - 0.00 in   Clear
10:05 AM 44.6 °F 39.2 °F 23.0 °F 43% 30.11 in 10.0 mi South 10.4 mph - 0.00 in   Clear
10:25 AM 44.6 °F 38.8 °F 23.0 °F 43% 30.11 in 10.0 mi South 11.5 mph 17.3 mph 0.00 in   Clear
10:45 AM 44.6 °F 39.2 °F 23.0 °F 43% 30.11 in 10.0 mi South 10.4 mph - 0.00 in   Clear
11:05 AM 44.6 °F 40.2 °F 23.0 °F 43% 30.11 in 10.0 mi SSW 8.1 mph - 0.00 in   Clear
11:25 AM 44.6 °F 38.4 °F 23.0 °F 43% 30.10 in 10.0 mi SSW 12.7 mph 18.4 mph 0.00 in   Clear
11:45 AM 46.4 °F 41.1 °F 23.0 °F 40% 30.10 in 10.0 mi SSW 11.5 mph 17.3 mph 0.00 in   Clear
12:05 PM 46.4 °F 41.1 °F 23.0 °F 40% 30.09 in 10.0 mi SSW 11.5 mph - 0.00 in   Clear
12:25 PM 46.4 °F 41.1 °F 23.0 °F 40% 30.08 in 10.0 mi SSW 11.5 mph 18.4 mph 0.00 in   Clear
12:45 PM 46.4 °F 40.1 °F 23.0 °F 40% 30.06 in 10.0 mi SSW 15.0 mph 18.4 mph 0.00 in   Clear
1:05 PM 46.4 °F 40.7 °F 24.8 °F 43% 30.06 in 9.0 mi SSW 12.7 mph 17.3 mph 0.00 in   Clear
1:25 PM 46.4 °F 40.1 °F 24.8 °F 43% 30.06 in 10.0 mi South 15.0 mph - 0.00 in   Clear
1:45 PM 46.4 °F 41.5 °F 24.8 °F 43% 30.06 in 10.0 mi South 10.4 mph 17.3 mph 0.00 in   Clear
2:05 PM 46.4 °F 41.5 °F 24.8 °F 43% 30.06 in 10.0 mi SSW 10.4 mph - 0.00 in   Clear
2:25 PM 46.4 °F 41.9 °F 24.8 °F 43% 30.06 in 10.0 mi South 9.2 mph - 0.00 in   Clear
2:45 PM 46.4 °F 41.5 °F 26.6 °F 46% 30.06 in 10.0 mi SSW 10.4 mph - 0.00 in   Clear
3:05 PM 46.4 °F 41.1 °F 26.6 °F 46% 30.06 in 10.0 mi South 11.5 mph 16.1 mph 0.00 in   Clear
3:25 PM 46.4 °F 41.1 °F 26.6 °F 46% 30.05 in 10.0 mi South 11.5 mph 17.3 mph 0.00 in   Clear
3:45 PM 46.4 °F 40.7 °F 26.6 °F 46% 30.06 in 10.0 mi South 12.7 mph 18.4 mph 0.00 in   Clear
4:05 PM 46.4 °F 41.1 °F 26.6 °F 46% 30.05 in 10.0 mi South 11.5 mph - 0.00 in   Clear
4:25 PM 46.4 °F 41.5 °F 28.4 °F 50% 30.05 in 10.0 mi South 10.4 mph - 0.00 in   Clear
4:45 PM 46.4 °F 41.9 °F 28.4 °F 50% 30.05 in 10.0 mi South 9.2 mph - 0.00 in   Partly Cloudy
5:05 PM 44.6 °F 40.2 °F 28.4 °F 53% 30.06 in 10.0 mi South 8.1 mph - 0.00 in   Scattered Clouds
5:25 PM 44.6 °F 40.7 °F 30.2 °F 57% 30.06 in 10.0 mi South 6.9 mph - 0.00 in   Partly Cloudy
5:45 PM 44.6 °F 40.7 °F 30.2 °F 57% 30.06 in 10.0 mi SSE 6.9 mph - 0.00 in   Clear
6:05 PM 44.6 °F 40.7 °F 30.2 °F 57% 30.06 in 10.0 mi South 6.9 mph - 0.00 in   Clear
6:25 PM 44.6 °F 40.2 °F 30.2 °F 57% 30.05 in 10.0 mi South 8.1 mph - 0.00 in   Clear
6:45 PM 44.6 °F 39.2 °F 30.2 °F 57% 30.05 in 10.0 mi South 10.4 mph - 0.00 in   Clear
7:05 PM 44.6 °F 39.7 °F 30.2 °F 57% 30.06 in 10.0 mi South 9.2 mph - 0.00 in   Clear
7:25 PM 42.8 °F 37.5 °F 30.2 °F 61% 30.06 in 10.0 mi South 9.2 mph - 0.00 in   Clear
7:45 PM 42.8 °F 38.6 °F 32.0 °F 66% 30.07 in 10.0 mi South 6.9 mph - 0.00 in   Clear
8:05 PM 42.8 °F 38.6 °F 32.0 °F 66% 30.07 in 10.0 mi South 6.9 mph - 0.00 in   Clear
8:25 PM 42.8 °F 38.6 °F 32.0 °F 66% 30.08 in 10.0 mi South 6.9 mph - 0.00 in   Clear
8:45 PM 42.8 °F 38.0 °F 32.0 °F 66% 30.08 in 10.0 mi South 8.1 mph - 0.00 in   Clear
9:05 PM 41.0 °F 36.4 °F 32.0 °F 70% 30.08 in 10.0 mi South 6.9 mph - 0.00 in   Clear
9:25 PM 39.2 °F 35.9 °F 32.0 °F 75% 30.09 in 10.0 mi South 4.6 mph - 0.00 in   Clear
9:45 PM 39.2 °F 35.0 °F 32.0 °F 75% 30.10 in 10.0 mi South 5.8 mph - 0.00 in   Clear
10:05 PM 39.2 °F 34.2 °F 32.0 °F 75% 30.10 in 10.0 mi SSE 6.9 mph - 0.00 in   Clear
10:25 PM 39.2 °F 34.2 °F 32.0 °F 75% 30.09 in 10.0 mi SSE 6.9 mph - 0.00 in   Clear
10:45 PM 39.2 °F 34.2 °F 32.0 °F 75% 30.10 in 10.0 mi South 6.9 mph - 0.00 in   Clear
11:05 PM 39.2 °F 34.2 °F 33.8 °F 81% 30.11 in 10.0 mi South 6.9 mph - 0.00 in   Clear
11:25 PM 41.0 °F 35.8 °F 35.6 °F 81% 30.11 in 10.0 mi South 8.1 mph - 0.00 in   Clear
11:45 PM 41.0 °F 35.8 °F 35.6 °F 81% 30.10 in 10.0 mi SSE 8.1 mph - 0.00 in   Clear